Location: Newark
(35.5300°N, 14.3000°E)
Time: 01:54:35
(UTC+00:00)

S-56A Canister/Altair - Pass Details

Date: 14 November 2019
Orbit: 633 x 2500 km, 38.9° (Epoch: 08 December)

Event Time Altitude Azimuth Distance (km) Brightness Sun altitude
Rises 18:06:53 0° 253° (WSW) 4,551 12.7 -26.5°
Reaches altitude 10° 18:10:25 10° 254° (WSW) 3,272 11.7 -27.2°
Maximum altitude 18:18:05 84° 343° (NNW) 939 7.8 -28.7°
Enters shadow 18:18:15 83° 18° (NNE) 935 7.7 -28.8°
